Tracking 28790 objects as of 19-Apr-2024
HD Live streaming from Space Station
objects crossing your sky now

CZ-2C DEB

Track CZ-2C DEB now!
10-day predictions


NORAD ID: 37768
Int'l Code: 2011-039D
Perigee: 679.7 km
Apogee: 880.5 km
Inclination: 98.3 °
Period: 100.3 minutes
Semi major axis: 7151 km
RCS: 0.0872 m2 (small)
Launch date: July 29, 2011
Source: People's Republic of China (PRC)
Launch site: Jiuquan Satellite Launch Center, China (JSC)

Note: This is SATELLITE DEBRIS
Your satellite tracking list
Your tracking list is empty




NASA's NSSDC Master Catalog

Two Line Element Set (TLE):
1 37768U 11039D   24109.46159091  .00008063  00000-0  25102-2 0  9995
2 37768  98.2812  69.0909 0140369  96.5398  18.4465 14.35635847663536
Source of the keplerian elements: AFSPC